This is the latest recevied weather packets stored in our database for station/object KY0TEQ-13. If no packets are shown the sender has not sent any weather packets the latest 10 day(s).
| Time | Temp. | Humidity | Pressure | Rain* | Wind** | Luminosity | Snow |
|---|---|---|---|---|---|---|---|
| 1777846701 | 18.89° C | 19% | 1301.3 hPa | 0 mm | - | 165 W/m² | - |
| 1777846399 | 18.89° C | 18% | 1301.6 hPa | 0 mm | - | 223 W/m² | - |
| 1777846094 | 18.89° C | 18% | 1301.7 hPa | 0 mm | - | 148 W/m² | - |
| 1777845792 | 20.56° C | 17% | 1301.2 hPa | 0 mm | - | 491 W/m² | - |
| 1777845488 | 19.44° C | 19% | 1301.7 hPa | 0 mm | - | 677 W/m² | - |
| 1777845185 | 18.89° C | 19% | 1302 hPa | 0 mm | - | 176 W/m² | - |
| 1777844883 | 19.44° C | 18% | 1302.1 hPa | 0 mm | - | 696 W/m² | - |
| 1777844580 | 18.89° C | 18% | 1302.1 hPa | 0 mm | - | 681 W/m² | - |
| 1777844278 | 19.44° C | 18% | 1302.1 hPa | 0 mm | - | 660 W/m² | - |
| 1777843975 | 19.44° C | 18% | 1302.2 hPa | 0 mm | - | 671 W/m² | - |
| 1777843672 | 19.44° C | 18% | 1302.3 hPa | 0 mm | - | 689 W/m² | - |
| 1777843369 | 18.33° C | 21% | 1302.6 hPa | 0 mm | - | 702 W/m² | - |
| 1777843067 | 17.78° C | 19% | 1302.6 hPa | 0 mm | - | 172 W/m² | - |
| 1777842763 | 18.33° C | 20% | 1302.8 hPa | 0 mm | - | 204 W/m² | - |
| 1777842458 | 17.22° C | 20% | 1302.8 hPa | 0 mm | - | 806 W/m² | - |
| 1777842156 | 17.78° C | 18% | 1302.8 hPa | 0 mm | - | 153 W/m² | - |
| 1777841851 | 17.22° C | 20% | 1303 hPa | 0 mm | - | 161 W/m² | - |
| 1777841547 | 17.22° C | 20% | 1303 hPa | 0 mm | - | 160 W/m² | - |
| 1777841244 | 18.33° C | 18% | 1303.4 hPa | 0 mm | - | 339 W/m² | - |
| 1777840942 | 17.78° C | 20% | 1303.4 hPa | 0 mm | - | 787 W/m² | - |
| 1777840639 | 17.78° C | 19% | 1303.4 hPa | 0 mm | - | 361 W/m² | - |
| 1777840337 | 18.33° C | 20% | 1303.3 hPa | 0 mm | - | 755 W/m² | - |
| 1777840034 | 17.22° C | 19% | 1303.4 hPa | 0 mm | - | 260 W/m² | - |
| 1777839732 | 17.78° C | 19% | 1303.8 hPa | 0 mm | - | 333 W/m² | - |
| 1777839429 | 17.22° C | 19% | 1303.7 hPa | 0 mm | - | 267 W/m² | - |
* Rain latest hour (hover to see other rain measurements)
** Current wind speed in m/s (hover to see current wind gust speed)